Hill City, KS

9:39 PM CST on February 06, 2016 (GMT -0600)
Hill City Municipal

Weather History for KHLC - May, 2012

Change the Weather History Date:

Wednesday, May 9, 2012

  Actual Average Record
Temperature  
Mean Temperature 56 °F 60 °F  
Max Temperature 79 °F 73 °F 97 °F (2011)
Min Temperature 33 °F 47 °F 32 °F (1997)
Degree Days  
Heating Degree Days 8    
Growing Degree Days 6 (Base 50)    
Moisture  
Dew Point 36 °F    
Average Humidity 48    
Maximum Humidity 85    
Minimum Humidity 20    
Precipitation  
Precipitation 0.00 in 0.12 in - ()
Month to date precipitation 0.01 1.02  
Year to date precipitation 3.88 5.74  
Sea Level Pressure  
Sea Level Pressure 30.02 in    
Wind  
Wind Speed 3 mph (SE)    
Max Wind Speed 9 mph    
Max Gust Speed 16 mph    
Visibility 10 miles    
Events      
T = Trace of Precipitation, MM = Missing Value Source: NWS Daily Summary

Daily Weather History Graph

Daily Weather History Graph

Search for Another Location

Airport or City:

Trip Planner

Search our weather history database for the weather conditions in past years. The results will help you decide how hot, cold, wet, or windy it might be!

Date:

Astronomy

May. 09, 2012 Rise Set
Actual Time 6:30 AM CDT 8:41 PM CDT
Civil Twilight 6:01 AM CDT 9:10 PM CDT
Nautical Twilight 5:24 AM CDT 9:47 PM CDT
Astronomical Twilight 4:44 AM CDT 10:27 PM CDT
Moon No Moon Rise 9:48 AM CDT (5/9)
Length of Visible Light 15h 09m
Length of Day
14h 10m
Waning Gibbous, 82% of the Moon is Illuminated
May 9
Waning Gibbous
May 12
Last Quarter
May 20
New
May 28
First Quarter
Jun 4
Full

Hourly Weather History & Observations

Time (CDT) Temp. Windchill Dew Point Humidity Pressure Visibility Wind Dir Wind Speed Gust Speed Precip Events Conditions
12:53 AM 43.0 °F - 34.0 °F 71% 30.13 in 10.0 mi Calm Calm - N/A   Clear
1:53 AM 42.1 °F 40.2 °F 32.0 °F 67% 30.12 in 10.0 mi NNW 3.5 mph - N/A   Clear
3:53 AM 37.9 °F - 32.0 °F 79% 30.12 in 10.0 mi Calm Calm - N/A   Clear
4:53 AM 36.0 °F - 30.9 °F 82% 30.13 in 10.0 mi Calm Calm - N/A   Clear
5:53 AM 34.0 °F - 30.0 °F 85% 30.13 in 10.0 mi Calm Calm - N/A   Clear
6:53 AM 35.1 °F - 30.0 °F 82% 30.14 in 10.0 mi Calm Calm - N/A   Clear
7:53 AM 43.0 °F - 36.0 °F 76% 30.12 in 10.0 mi Calm Calm - N/A   Clear
8:53 AM 51.1 °F - 36.0 °F 56% 30.12 in 10.0 mi ESE 4.6 mph - N/A   Clear
9:53 AM 57.0 °F - 39.0 °F 51% 30.12 in 10.0 mi SSE 5.8 mph - N/A   Clear
10:53 AM 63.0 °F - 39.0 °F 41% 30.11 in 10.0 mi SSE 6.9 mph - N/A   Clear
11:53 AM 66.9 °F - 37.9 °F 34% 30.08 in 10.0 mi South 8.1 mph - N/A   Clear
12:53 PM 70.0 °F - 37.0 °F 30% 30.06 in 10.0 mi South 6.9 mph 16.1 mph N/A   Clear
1:53 PM 73.0 °F - 37.0 °F 27% 30.03 in 10.0 mi SSE 8.1 mph - N/A   Clear
2:53 PM 75.9 °F - 37.9 °F 25% 30.00 in 10.0 mi South 5.8 mph - N/A   Clear
3:53 PM 78.1 °F - 36.0 °F 22% 29.96 in 10.0 mi Calm Calm - N/A   Clear
4:53 PM 79.0 °F - 36.0 °F 21% 29.93 in 10.0 mi South 9.2 mph - N/A   Clear
5:53 PM 79.0 °F - 35.1 °F 20% 29.91 in 10.0 mi ESE 4.6 mph - N/A   Clear
6:53 PM 78.1 °F - 37.0 °F 23% 29.89 in 10.0 mi SE 5.8 mph - N/A   Clear
7:53 PM 73.9 °F - 39.0 °F 28% 29.88 in 10.0 mi SE 6.9 mph - N/A   Clear
8:53 PM 64.9 °F - 39.9 °F 40% 29.88 in 10.0 mi SE 6.9 mph - N/A   Clear
9:53 PM 59.0 °F - 41.0 °F 51% 29.88 in 10.0 mi East 4.6 mph - N/A   Clear
10:53 PM 57.9 °F - - N/A% 29.88 in 10.0 mi ESE 4.6 mph - N/A   Clear
11:53 PM 57.9 °F - - N/A% 29.86 in 10.0 mi Calm Calm - N/A   Clear